When you browse on this site, cookies collect data to enhance your experience and personalize the content and advertising you see.
Visit our Privacy Policy to learn more. By continuing to use the site, you agree to this use of cookies and data.
  • în România
  • Lista ţărilor
  • Pe 7 zile
  • Temperatura apei
  • Hartă satelitară
  • Meteo pe hartă
  • Widget-uri
  • user-avatar
    Intrare

    Meteo pe oră la Linz

    Astăzi, 10 Decembrie, Luni

    Timp Temperatura Precipitaţii Vânt Presiune Umiditate
    00:00 +5°C° 0.5 mm 5 m/s 727 mmHg 86%
    01:00 +5°C° 0 mm 5 m/s 728 mmHg 85%
    02:00 +3°C° 0.4 mm 5 m/s 728 mmHg 84%
    03:00 +3°C° 0.4 mm 6 m/s 729 mmHg 83%
    04:00 +3°C° 0.4 mm 6 m/s 729 mmHg 83%
    05:00 +3°C° 0.1 mm 6 m/s 730 mmHg 82%
    06:00 +2°C° 0.1 mm 6 m/s 730 mmHg 81%
    07:00 +2°C° 0 mm 6 m/s 731 mmHg 81%
    08:00 +2°C° 0.2 mm 6 m/s 731 mmHg 80%
    09:00 +2°C° 0.2 mm 6 m/s 732 mmHg 79%
    10:00 +2°C° 0.2 mm 6 m/s 732 mmHg 77%
    11:00 +2°C° 0.2 mm 7 m/s 732 mmHg 76%
    12:00 +2°C° 0.2 mm 7 m/s 733 mmHg 74%
    13:00 +2°C° 0.2 mm 7 m/s 733 mmHg 73%
    14:00 +2°C° 0.2 mm 6 m/s 733 mmHg 74%
    15:00 +2°C° 0.2 mm 6 m/s 733 mmHg 76%
    16:00 +1°C° 0.2 mm 5 m/s 733 mmHg 77%
    17:00 +1°C° 0.2 mm 5 m/s 733 mmHg 80%
    18:00 +1°C° 0.2 mm 4 m/s 733 mmHg 82%
    19:00 0°C° 0.2 mm 4 m/s 734 mmHg 85%
    20:00 0°C° 0.4 mm 4 m/s 733 mmHg 86%
    21:00 0°C° 0.4 mm 4 m/s 733 mmHg 87%
    22:00 0°C° 0.4 mm 4 m/s 733 mmHg 88%
    23:00 0°C° 0.2 mm 4 m/s 733 mmHg 88%

    Mâine, 11 Decembrie, Marţi

    Timp Temperatura Precipitaţii Vânt Presiune Umiditate
    00:00 0°C° 0.2 mm 4 m/s 733 mmHg 87%
    01:00 -1°C° 0.2 mm 4 m/s 733 mmHg 86%
    02:00 -1°C° 0.2 mm 5 m/s 733 mmHg 86%
    03:00 -1°C° 0.2 mm 5 m/s 733 mmHg 86%
    04:00 -1°C° 0.2 mm 5 m/s 733 mmHg 86%
    05:00 -2°C° 0.4 mm 6 m/s 733 mmHg 86%
    06:00 -2°C° 0.4 mm 6 m/s 733 mmHg 86%
    07:00 -1°C° 0.4 mm 6 m/s 733 mmHg 87%
    08:00 -1°C° 0.4 mm 6 m/s 734 mmHg 86%
    09:00 -1°C° 0.4 mm 6 m/s 734 mmHg 85%
    10:00 -1°C° 0.4 mm 7 m/s 734 mmHg 84%
    11:00 -1°C° 0.3 mm 7 m/s 734 mmHg 83%
    12:00 -1°C° 0.3 mm 7 m/s 733 mmHg 83%
    13:00 0°C° 0.3 mm 7 m/s 733 mmHg 82%
    14:00 -1°C° 0.2 mm 7 m/s 733 mmHg 82%
    15:00 -1°C° 0.2 mm 6 m/s 733 mmHg 82%
    16:00 -1°C° 0.2 mm 6 m/s 734 mmHg 83%
    17:00 -1°C° 0.2 mm 6 m/s 734 mmHg 84%
    18:00 -1°C° 0.2 mm 6 m/s 734 mmHg 84%
    19:00 -1°C° 0.2 mm 6 m/s 734 mmHg 85%
    20:00 -1°C° 0.4 mm 6 m/s 734 mmHg 86%
    21:00 -1°C° 0.4 mm 6 m/s 735 mmHg 87%
    22:00 -2°C° 0.4 mm 6 m/s 735 mmHg 88%
    23:00 -1°C° 0.5 mm 5 m/s 735 mmHg 88%

    Poimâine, 12 Decembrie, Miercuri

    Timp Temperatura Precipitaţii Vânt Presiune Umiditate
    00:00 -1°C° 0.5 mm 5 m/s 735 mmHg 89%
    01:00 -1°C° 0.5 mm 5 m/s 735 mmHg 90%
    02:00 -1°C° 0.5 mm 4 m/s 735 mmHg 90%
    03:00 -1°C° 0.5 mm 4 m/s 735 mmHg 91%
    04:00 -1°C° 0.5 mm 4 m/s 735 mmHg 91%
    05:00 -1°C° 0.5 mm 4 m/s 735 mmHg 92%
    06:00 -1°C° 0.5 mm 3 m/s 735 mmHg 92%
    07:00 -1°C° 0.5 mm 3 m/s 736 mmHg 93%
    08:00 -1°C° 0.3 mm 3 m/s 736 mmHg 92%
    09:00 +1°C° 0.3 mm 2 m/s 736 mmHg 92%
    10:00 +1°C° 0.3 mm 2 m/s 736 mmHg 91%
    11:00 +1°C° 0.1 mm 2 m/s 735 mmHg 91%
    12:00 +1°C° 0.1 mm 2 m/s 735 mmHg 90%
    13:00 +2°C° 0.1 mm 2 m/s 735 mmHg 89%
    14:00 +1°C° 0 mm 2 m/s 735 mmHg 90%
    15:00 +2°C° 0 mm 1 m/s 734 mmHg 91%
    16:00 +1°C° 0 mm 1 m/s 734 mmHg 92%
    17:00 +1°C° 0 mm 1 m/s 735 mmHg 92%
    18:00 -1°C° 0 mm 0 m/s 735 mmHg 93%
    19:00 -2°C° 0 mm 0 m/s 735 mmHg 93%
    20:00 -2°C° 0 mm 0 m/s 735 mmHg 93%
    21:00 -2°C° 0 mm 0 m/s 735 mmHg 92%
    22:00 -1°C° 0 mm 1 m/s 735 mmHg 92%
    23:00 -2°C° 0 mm 1 m/s 735 mmHg 92%

    13 Decembrie, Joi

    Timp Temperatura Precipitaţii Vânt Presiune Umiditate
    00:00 -2°C° 0 mm 1 m/s 735 mmHg 92%
    01:00 -3°C° 0 mm 1 m/s 735 mmHg 91%
    02:00 -3°C° 0 mm 1 m/s 735 mmHg 91%
    03:00 -3°C° 0 mm 1 m/s 734 mmHg 91%
    04:00 -4°C° 0 mm 1 m/s 734 mmHg 91%
    05:00 -4°C° 0 mm 1 m/s 734 mmHg 90%
    06:00 -4°C° 0 mm 1 m/s 734 mmHg 90%
    07:00 -4°C° 0 mm 1 m/s 734 mmHg 90%
    08:00 -3°C° 0 mm 1 m/s 733 mmHg 88%
    09:00 -2°C° 0 mm 1 m/s 733 mmHg 86%
    10:00 -1°C° 0 mm 1 m/s 733 mmHg 83%
    11:00 -2°C° 0 mm 2 m/s 733 mmHg 82%
    12:00 -1°C° 0 mm 2 m/s 732 mmHg 81%
    13:00 +1°C° 0 mm 2 m/s 732 mmHg 79%
    14:00 -1°C° 0 mm 2 m/s 732 mmHg 82%
    15:00 -2°C° 0 mm 2 m/s 732 mmHg 85%
    16:00 -3°C° 0 mm 2 m/s 732 mmHg 88%
    17:00 -3°C° 0 mm 2 m/s 732 mmHg 89%
    18:00 -4°C° 0 mm 2 m/s 732 mmHg 89%
    19:00 -4°C° 0 mm 2 m/s 732 mmHg 90%
    20:00 -5°C° 0 mm 2 m/s 733 mmHg 89%
    21:00 -5°C° 0 mm 2 m/s 733 mmHg 89%
    22:00 -5°C° 0 mm 2 m/s 733 mmHg 88%
    23:00 -5°C° 0 mm 2 m/s 733 mmHg 88%

    14 Decembrie, Vineri

    Timp Temperatura Precipitaţii Vânt Presiune Umiditate
    00:00 -5°C° 0 mm 2 m/s 733 mmHg 88%
    01:00 -6°C° 0 mm 2 m/s 733 mmHg 88%
    02:00 -5°C° 0 mm 2 m/s 733 mmHg 88%
    03:00 -5°C° 0 mm 2 m/s 733 mmHg 88%
    04:00 -5°C° 0 mm 2 m/s 733 mmHg 88%
    05:00 -5°C° 0 mm 2 m/s 734 mmHg 88%
    06:00 -3°C° 0 mm 1 m/s 734 mmHg 88%
    07:00 -3°C° 0 mm 1 m/s 734 mmHg 88%
    08:00 -2°C° 0 mm 1 m/s 735 mmHg 87%
    09:00 -1°C° 0 mm 1 m/s 735 mmHg 85%
    10:00 0°C° 0 mm 1 m/s 736 mmHg 84%
    11:00 0°C° 0 mm 1 m/s 736 mmHg 83%
    12:00 +1°C° 0 mm 1 m/s 736 mmHg 82%
    13:00 +2°C° 0 mm 1 m/s 736 mmHg 81%
    14:00 +1°C° 0 mm 1 m/s 736 mmHg 84%
    15:00 +1°C° 0 mm 1 m/s 737 mmHg 87%
    16:00 0°C° 0 mm 1 m/s 737 mmHg 90%
    17:00 -1°C° 0 mm 0 m/s 738 mmHg 89%
    18:00 -1°C° 0 mm 0 m/s 739 mmHg 89%
    19:00 -2°C° 0 mm 0 m/s 739 mmHg 89%
    20:00 -2°C° 0 mm 0 m/s 740 mmHg 89%
    21:00 -2°C° 0 mm 0 m/s 740 mmHg 88%
    22:00 -2°C° 0 mm 0 m/s 740 mmHg 88%
    23:00 -2°C° 0 mm 0 m/s 741 mmHg 88%

    15 Decembrie, Sâmbătă

    Timp Temperatura Precipitaţii Vânt Presiune Umiditate
    00:00 -1°C° 0 mm 0 m/s 741 mmHg 87%
    01:00 -1°C° 0 mm 0 m/s 741 mmHg 87%
    02:00 -1°C° 0 mm 0 m/s 742 mmHg 86%
    03:00 -1°C° 0 mm 0 m/s 742 mmHg 86%
    04:00 -1°C° 0 mm 0 m/s 742 mmHg 86%
    05:00 0°C° 0 mm 1 m/s 742 mmHg 86%
    06:00 0°C° 0 mm 1 m/s 743 mmHg 86%
    07:00 0°C° 0 mm 1 m/s 743 mmHg 87%
    08:00 -1°C° 0 mm 0 m/s 743 mmHg 86%
    09:00 0°C° 0 mm 0 m/s 743 mmHg 85%
    10:00 +1°C° 0 mm 0 m/s 743 mmHg 84%
    11:00 +2°C° 0 mm 0 m/s 743 mmHg 85%
    12:00 +3°C° 0 mm 0 m/s 743 mmHg 85%
    13:00 +3°C° 0 mm 0 m/s 742 mmHg 85%
    14:00 +2°C° 0 mm 0 m/s 742 mmHg 87%
    15:00 +1°C° 0 mm 0 m/s 742 mmHg 89%
    16:00 0°C° 0 mm 0 m/s 742 mmHg 91%
    17:00 0°C° 0 mm 0 m/s 743 mmHg 90%
    18:00 +1°C° 0 mm 1 m/s 743 mmHg 90%
    19:00 0°C° 0 mm 1 m/s 743 mmHg 90%
    20:00 0°C° 0 mm 1 m/s 743 mmHg 90%
    21:00 0°C° 0 mm 1 m/s 743 mmHg 89%
    22:00 0°C° 0 mm 1 m/s 743 mmHg 89%
    23:00 0°C° 0 mm 1 m/s 743 mmHg 88%
    Arată mai mult